Weather History for KHYW - April, 2013

Change the Weather History Date:

Sunday, April 7, 2013

  Actual Average Record
Temperature  
Mean Temperature 56 °F -  
Max Temperature 73 °F 72 °F 80 °F (2014)
Min Temperature 39 °F 45 °F 32 °F (2012)
Degree Days  
Heating Degree Days 9    
Growing Degree Days 6 (Base 50)    
Moisture  
Dew Point 48 °F    
Average Humidity 78    
Maximum Humidity 100    
Minimum Humidity 44    
Precipitation  
Precipitation 0.00 in - - ()
Sea Level Pressure  
Sea Level Pressure 30.22 in    
Wind  
Wind Speed 2 mph (SE)    
Max Wind Speed 10 mph    
Max Gust Speed 16 mph    
Visibility 6 miles    
Events      
Averages and records for this station are not official NWS values.
T = Trace of Precipitation, MM = Missing Value Source: NWS Daily Summary

Daily Weather History Graph

Daily Weather History Graph

Search for Another Location

Airport or City:

Trip Planner

Search our weather history database for the weather conditions in past years. The results will help you decide how hot, cold, wet, or windy it might be!

Date:

Astronomy

Apr. 07, 2013 Rise Set
Actual Time 6:55 AM EDT 7:41 PM EDT
Civil Twilight 6:30 AM EDT 8:07 PM EDT
Nautical Twilight 6:00 AM EDT 8:37 PM EDT
Astronomical Twilight 5:29 AM EDT 9:07 PM EDT
Moon 5:05 AM EDT (4/7) 5:17 PM EDT (4/7)
Length of Visible Light 13h 36m
Length of Day
12h 46m
Waning Crescent, 8% of the Moon is Illuminated
Apr 7
Waning Crescent
Apr 10
New
Apr 18
First Quarter
Apr 25
Full
May 2
Last Quarter

Hourly Weather History & Observations

Time (EDT) Temp. Windchill Dew Point Humidity Pressure Visibility Wind Dir Wind Speed Gust Speed Precip Events Conditions
12:15 AM 50.0 °F - 44.6 °F 82% 30.27 in 7.0 mi East 3.5 mph - N/A   Clear
12:35 AM 50.0 °F - 44.6 °F 82% 30.27 in 7.0 mi East 3.5 mph - N/A   Clear
12:55 AM 48.2 °F - 44.6 °F 87% 30.26 in 7.0 mi NE 3.5 mph - N/A   Clear
1:15 AM 48.2 °F - 44.6 °F 87% 30.26 in 5.0 mi NE 3.5 mph - N/A   Clear
1:35 AM 46.4 °F - 44.6 °F 93% 30.25 in 7.0 mi Calm Calm - N/A   Clear
1:55 AM 44.6 °F - 44.6 °F 100% 30.25 in 5.0 mi Calm Calm - N/A   Clear
2:15 AM 42.8 °F - 42.8 °F 100% 30.24 in 5.0 mi Calm Calm - N/A   Clear
2:35 AM 42.8 °F - 42.8 °F 100% 30.23 in 5.0 mi Calm Calm - N/A   Clear
2:55 AM 42.8 °F - 42.8 °F 100% 30.22 in 5.0 mi Calm Calm - N/A   Clear
3:15 AM 42.8 °F - 42.8 °F 100% 30.22 in 7.0 mi Calm Calm - N/A   Clear
3:35 AM 41.0 °F - 41.0 °F 100% 30.22 in 5.0 mi Calm Calm - N/A   Clear
3:55 AM 42.8 °F 41.1 °F 42.8 °F 100% 30.22 in 5.0 mi North 3.5 mph - N/A   Clear
4:15 AM 41.0 °F - 41.0 °F 100% 30.22 in 7.0 mi Calm Calm - N/A   Clear
4:35 AM 41.0 °F - 41.0 °F 100% 30.22 in 7.0 mi Calm Calm - N/A   Clear
4:55 AM 41.0 °F - 41.0 °F 100% 30.23 in 5.0 mi Calm Calm - N/A   Clear
5:15 AM 41.0 °F - 41.0 °F 100% 30.23 in 7.0 mi Calm Calm - N/A   Clear
5:35 AM 39.2 °F - 39.2 °F 100% 30.23 in 7.0 mi Calm Calm - N/A   Clear
5:55 AM 39.2 °F - 39.2 °F 100% 30.23 in 5.0 mi Calm Calm - N/A   Clear
6:15 AM 39.2 °F - 39.2 °F 100% 30.24 in 7.0 mi Calm Calm - N/A   Clear
6:35 AM 39.2 °F - 39.2 °F 100% 30.24 in 7.0 mi Calm Calm - N/A   Clear
6:55 AM 41.0 °F - 41.0 °F 100% 30.25 in 7.0 mi Calm Calm - N/A   Clear
7:15 AM 39.2 °F - 39.2 °F 100% 30.25 in 4.0 mi Calm Calm - N/A   Clear
7:35 AM 41.0 °F 39.0 °F 41.0 °F 100% 30.26 in 4.0 mi NNE 3.5 mph - N/A   Clear
7:55 AM 42.8 °F 41.1 °F 42.8 °F 100% 30.26 in 4.0 mi NNE 3.5 mph - N/A   Clear
8:15 AM 44.6 °F - 44.6 °F 100% 30.26 in 4.0 mi Calm Calm - N/A   Clear
8:35 AM 46.4 °F - 46.4 °F 100% 30.27 in 4.0 mi Calm Calm - N/A   Clear
8:55 AM 50.0 °F - 48.2 °F 94% 30.27 in 5.0 mi Calm Calm - N/A   Clear
9:15 AM 53.6 °F - 50.0 °F 88% 30.27 in 5.0 mi East 4.6 mph - N/A   Clear
9:35 AM 55.4 °F - 50.0 °F 82% 30.27 in 5.0 mi East 3.5 mph - N/A   Haze
9:55 AM 59.0 °F - 48.2 °F 67% 30.27 in 5.0 mi Calm Calm - N/A   Haze
10:15 AM 60.8 °F - 50.0 °F 68% 30.27 in 5.0 mi Calm Calm - N/A   Haze
10:35 AM 62.6 °F - 50.0 °F 63% 30.27 in 5.0 mi Calm Calm - N/A   Haze
10:55 AM 64.4 °F - 48.2 °F 56% 30.27 in 5.0 mi ESE 3.5 mph - N/A   Haze
11:15 AM 66.2 °F - 46.4 °F 49% 30.28 in 7.0 mi Calm Calm - N/A   Clear
11:35 AM 68.0 °F - 48.2 °F 49% 30.27 in 5.0 mi ESE 4.6 mph - N/A   Haze
11:55 AM 68.0 °F - 46.4 °F 46% 30.27 in 7.0 mi Calm Calm - N/A   Clear
12:15 PM 68.0 °F - 48.2 °F 49% 30.26 in 7.0 mi Calm Calm - N/A   Clear
12:35 PM 69.8 °F - 50.0 °F 49% 30.25 in 5.0 mi SE 4.6 mph - N/A   Haze
12:55 PM 69.8 °F - 50.0 °F 49% 30.25 in 7.0 mi Calm Calm - N/A   Scattered Clouds
1:15 PM 71.6 °F - 50.0 °F 46% 30.23 in 7.0 mi South 5.8 mph - N/A   Scattered Clouds
1:35 PM 69.8 °F - 50.0 °F 49% 30.22 in 7.0 mi Calm Calm - N/A   Scattered Clouds
1:55 PM 71.6 °F - 50.0 °F 46% 30.21 in 7.0 mi West 5.8 mph - N/A   Scattered Clouds
2:15 PM 73.4 °F - 50.0 °F 44% 30.20 in 5.0 mi SW 3.5 mph - N/A   Haze
2:35 PM 71.6 °F - 50.0 °F 46% 30.20 in 7.0 mi ENE 4.6 mph - N/A   Scattered Clouds
2:55 PM 71.6 °F - 51.8 °F 50% 30.19 in 7.0 mi East 6.9 mph - N/A   Mostly Cloudy
3:15 PM 71.6 °F - 51.8 °F 50% 30.18 in 5.0 mi ESE 4.6 mph - N/A   Haze
3:35 PM 69.8 °F - 51.8 °F 53% 30.18 in 7.0 mi SSE 6.9 mph - N/A   Mostly Cloudy
3:55 PM 71.6 °F - 51.8 °F 50% 30.17 in 7.0 mi SE 4.6 mph - N/A   Scattered Clouds
4:15 PM 71.6 °F - 50.0 °F 46% 30.17 in 7.0 mi ESE 6.9 mph - N/A   Clear
4:35 PM 69.8 °F - 50.0 °F 49% 30.17 in 5.0 mi South 10.4 mph - N/A   Haze
4:55 PM 71.6 °F - 50.0 °F 46% 30.16 in 5.0 mi SSE 9.2 mph - N/A   Haze
5:15 PM 69.8 °F - 50.0 °F 49% 30.16 in 7.0 mi South 8.1 mph - N/A   Clear
5:35 PM 69.8 °F - 50.0 °F 49% 30.16 in 7.0 mi SSE 10.4 mph - N/A   Clear
5:55 PM 69.8 °F - 50.0 °F 49% 30.16 in 5.0 mi SSE 9.2 mph - N/A   Haze
6:15 PM 69.8 °F - 51.8 °F 53% 30.16 in 5.0 mi South 6.9 mph - N/A   Haze
6:35 PM 68.0 °F - 51.8 °F 56% 30.17 in 5.0 mi SSE 9.2 mph 16.1 mph N/A   Haze
6:55 PM 66.2 °F - 51.8 °F 60% 30.17 in 5.0 mi SSE 5.8 mph - N/A   Haze
7:15 PM 64.4 °F - 53.6 °F 68% 30.17 in 5.0 mi SSE 6.9 mph - N/A   Haze
7:35 PM 64.4 °F - 55.4 °F 73% 30.17 in 7.0 mi SSE 4.6 mph - N/A   Clear
7:55 PM 62.6 °F - 55.4 °F 77% 30.17 in 7.0 mi SSE 3.5 mph - N/A   Clear
8:15 PM 60.8 °F - 55.4 °F 82% 30.17 in 7.0 mi South 3.5 mph - N/A   Clear
8:35 PM 60.8 °F - 55.4 °F 82% 30.17 in 5.0 mi South 3.5 mph - N/A   Haze
8:55 PM 60.8 °F - 55.4 °F 82% 30.18 in 7.0 mi Calm Calm - N/A   Clear
9:15 PM 59.0 °F - 55.4 °F 88% 30.18 in 7.0 mi Calm Calm - N/A   Clear
9:35 PM 57.2 °F - 57.2 °F 100% 30.19 in 7.0 mi Calm Calm - N/A   Clear
9:55 PM 55.4 °F - 55.4 °F 100% 30.20 in 5.0 mi Calm Calm - N/A   Clear
10:15 PM 55.4 °F - 55.4 °F 100% 30.19 in 7.0 mi Calm Calm - N/A   Clear
10:35 PM 55.4 °F - 55.4 °F 100% 30.20 in 5.0 mi Calm Calm - N/A   Clear
10:55 PM 53.6 °F - 53.6 °F 100% 30.19 in 5.0 mi Calm Calm - N/A   Clear
11:15 PM 53.6 °F - 53.6 °F 100% 30.19 in 5.0 mi Calm Calm - N/A   Clear
11:35 PM 51.8 °F - 51.8 °F 100% 30.19 in 3.0 mi Calm Calm - N/A   Clear
11:55 PM 53.6 °F - 53.6 °F 100% 30.18 in 5.0 mi Calm Calm - N/A   Clear